Regional Weather Roundup
Issued by NWS Newport/Morehead, NC

Current Version | Previous Version | Graphics & Text | Print | Product List | Glossary Off
Versions: 1 2 3 4 5 6 7 8 9 10 11 12 13 14 15 16 17 18 19 20 21 22 23 24 25 26 27 28 29 30 31 32 33 34 35 36 37 38 39 40 41 42 43 44 45 46 47 48 49 50
000 ASUS42 KMHX 260622 RWRMHX WEATHER ROUNDUP FOR EASTERN NORTH CAROLINA NATIONAL WEATHER SERVICE NEWPORT/MOREHEAD CITY NC 100 AM EST MON JAN 26 2015 NOTE: "FAIR" INDICATES FEW OR NO CLOUDS BELOW 12,000 FEET WITH NO SIGNIFICANT WEATHER AND/OR OBSTRUCTIONS TO VISIBILITY NCZ015>017-031-032-045>047-102-103-260700- NORTH COAST CITY SKY/WX TMP DP RH WIND PRES REMARKS EDENTON CLEAR 34 32 94 CALM 29.83F ELIZABETH CITY PTCLDY 36 33 89 CALM 29.86F KITTY HAWK CLEAR 41 38 90 CALM 29.84F MANTEO CLEAR 34 34 100 CALM 29.85F $$ NCZ045>047-081-094-103-104-260700- CENTRAL COAST CITY SKY/WX TMP DP RH WIND PRES REMARKS FRISCO CLEAR 45 41 86 NE7 29.84F SWANQUARTER NOT AVBL $$ NCZ095-097-098-100-101-260700- SOUTHERN COAST CITY SKY/WX TMP DP RH WIND PRES REMARKS BEAUFORT MOCLDY 41 40 96 CALM 29.82F CEDAR ISLAND NOT AVBL JACKSONVILLE CLOUDY 40 39 97 CALM 29.81F PINEY ISLAND N/A N/A N/A N/A MISG 29.82F WILMINGTON PTCLDY 40 39 97 CALM 29.82F $$ NCZ011>013-027>030-043-044-078>080-089-090>093-098-260700- COASTAL PLAIN CITY SKY/WX TMP DP RH WIND PRES REMARKS AHOSKIE CLEAR 33 32 96 CALM 29.83F CLINTON CLOUDY 41 38 89 CALM 29.80F ELIZABETHTOWN PTCLDY 39 37 93 CALM 29.78F GOLDSBORO CLOUDY 40 40 99 SE2 29.78F GREENVILLE CLOUDY 37 36 93 E3 29.83F HAVELOCK MOCLDY 40 37 89 CALM 29.83F KENANSVILLE CLOUDY 37 36 96 CALM 29.80F KINSTON CLOUDY 38 36 94 CALM 29.82F NEW BERN MOCLDY 40 36 86 CALM 29.82F RICHLANDS CLOUDY 37 34 87 CALM 29.81F ROCKY MOUNT MOCLDY 40 35 83 VRB3 29.80F WASHINGTON PTCLDY 34 33 96 CALM 29.82F WHITEVILLE CLEAR 41 38 91 S3 29.79F $$ AMZ130-135-150-152-154-156-158-170-250-252-270-ANZ085-086-088-633-658-670-260700- MARINE OBSERVATIONS STATION/POSITION TIME TEMP WIND PRES WAVE SWELL AIR SEA DIR/SP/G HT/PER HT/PER (UTC) (F) (DEG/KT/KT) (MB) (FT/S) (FT/S) CHESAPEAKE LIGHT 0600 45 160/ 4/ 5 1012.1 64 E VA BEACH 0600 50 53 180/ 8/ 8 1011.0 3/ 9 3/ 9 DUCK 0600 42 44 150/ 4/ 5 1010.0 2 E DUCK 0600 43 N/A 2/10 10 NE DUCK 0600 44 N/A 2/ 9 2/11 OREGON INLET 0600 43 47 80/ 4/ 5 1010.7 13E OREGON INLT 0600 45 N/A 3/ 8 2/11 HATTERAS CG 0600 48 53 50/ 4/ 6 1010.5 DIAMOND BUOY 0600 61 69 230/ 14/ 21 1010.0 4/ 9 3/ 9 17 S OCRACOKE NOT AVBL CAPE LOOKOUT 0600 54 50/ 4/ 4 1009.4 BEAUFORT LAB 0600 45 51 20/ 3/ 3 1008.5 27 SE WRIGHTSVLE NOT AVBL 5 SE WRIGHTSVLE 0600 52 51 260/ 10/ 12 1009.7 225 S CAPE HAT 0457 67 72 250/ 14/ 17 1012.6 5/ 7 3/ 7 41 SE CHARLESTON 0600 62 69 230/ 23/ 29 1009.1 6/ 6 2/10 $$

USA.gov is the U.S. government's official web portal to all federal, state and local government web resources and services.